This demonstration page uses our WeatherBlox Daily Observations layout. Learn more.

Hourly Observations for January 25, 2020

Temp ( °F °C ) Dew Point ( °F °C ) Humidity (%) Winds ( mph kmh ) Pressure ( in mb ) Visibility ( mi km ) Precip ( " mm )
12:16 am 00:16 Cloudy 36 2 36 2 100 100 SW 5 7 29.9 1012 5 8.0467 N/A
12:35 am 00:35 Cloudy 36 2 36 2 100 100 SW 6 9 29.89 1012 7 11.26538 N/A
12:56 am 00:56 Cloudy 36 2 36 2 100 100 WSW 7 11 29.89 1012 10 16.0934 N/A
1:15 am 01:15 Cloudy 36 2 36 2 100 100 SW 8 13 29.89 1012 10 16.0934 N/A
1:36 am 01:36 Cloudy 36 2 36 2 100 100 WSW 6 9 29.88 1012 10 16.0934 N/A
1:56 am 01:56 Cloudy 36 2 36 2 100 100 SW 6 9 29.89 1012 7 11.26538 N/A
2:16 am 02:16 Cloudy 34 1 34 1 100 100 SW 9 15 29.89 1012 5 8.0467 N/A
2:36 am 02:36 Cloudy 36 2 36 2 100 100 SW 8 13 29.89 1012 3 4.82802 N/A
2:56 am 02:56 Cloudy 36 2 36 2 100 100 SW 8 13 29.9 1012 5 8.0467 N/A
3:15 am 03:15 Cloudy 34 1 34 1 100 100 WSW 9 15 29.9 1013 5 8.0467 N/A
3:36 am 03:36 Cloudy 36 2 36 2 100 100 SW 8 13 29.9 1012 5 8.0467 N/A
3:55 am 03:55 Cloudy 34 1 34 1 100 100 WSW 9 15 29.9 1013 4 6.43736 N/A
4:15 am 04:15 Cloudy 34 1 34 1 100 100 WSW 10 17 29.9 1013 3 4.82802 N/A
4:35 am 04:35 Cloudy 34 1 34 1 100 100 WSW 13 20 29.91 1013 10 16.0934 N/A
4:55 am 04:55 Cloudy 34 1 34 1 100 100 SW 9 15 29.91 1013 10 16.0934 N/A
5:15 am 05:15 Cloudy 34 1 34 1 100 100 WSW 9 15 29.91 1013 10 16.0934 N/A
5:36 am 05:36 Cloudy 34 1 34 1 100 100 WSW 12 19 29.91 1013 10 16.0934 N/A
5:55 am 05:55 Cloudy 34 1 34 1 100 100 WSW 14 22 29.92 1013 10 16.0934 N/A
6:15 am 06:15 Cloudy 32 0 32 0 100 100 WSW 15 24 29.93 1013 7 11.26538 N/A
6:35 am 06:35 Cloudy 32 0 32 0 100 100 SW 12 19 29.94 1014 7 11.26538 N/A
6:56 am 06:56 Cloudy 32 0 32 0 100 100 SW 13 20 29.94 1014 7 11.26538 N/A
7:15 am 07:15 Cloudy 32 0 32 0 100 100 SW 12 19 29.94 1014 7 11.26538 N/A
7:35 am 07:35 Cloudy 32 0 32 0 100 100 SW 10 17 29.94 1014 7 11.26538 N/A
7:55 am 07:55 Cloudy 32 0 32 0 100 100 SW 9 15 29.95 1014 10 16.0934 N/A
8:16 am 08:16 Cloudy 32 0 32 0 100 100 SW 10 17 29.95 1014 10 16.0934 N/A
8:36 am 08:36 Cloudy 32 0 32 0 100 100 SW 12 19 29.96 1014 3 4.82802 N/A
8:56 am 08:56 Cloudy 32 0 32 0 100 100 SW 12 19 29.97 1015 1.25 2.011675 N/A
9:15 am 09:15 Cloudy 32 0 32 0 100 100 SW 12 19 29.97 1015 1 1.60934 N/A
9:35 am 09:35 Cloudy 32 0 32 0 100 100 SW 12 19 29.97 1015 1 1.60934 N/A
9:55 am 09:55 Cloudy 32 0 32 0 100 100 SW 12 19 29.97 1015 0.75 1.207005 N/A
10:15 am 10:15 Cloudy 32 0 32 0 100 100 SW 10 17 29.98 1015 1 1.60934 N/A
10:35 am 10:35 Cloudy 32 0 32 0 100 100 SW 13 20 29.98 1015 3 4.82802 N/A
10:56 am 10:56 Cloudy 32 0 32 0 100 100 SW 10 17 29.98 1015 4 6.43736 N/A
11:15 am 11:15 Cloudy 32 0 32 0 100 100 SW 10 17 29.99 1015 1.75 2.816345 N/A
11:36 am 11:36 Cloudy 32 0 32 0 100 100 SW 12 19 29.99 1015 1.5 2.41401 N/A
11:56 am 11:56 Cloudy 32 0 32 0 100 100 SW 12 19 29.99 1015 3 4.82802 N/A
12:15 pm 12:15 Cloudy 32 0 32 0 100 100 WSW 12 19 29.99 1015 2.5 4.02335 N/A
12:35 pm 12:35 Cloudy 32 0 32 0 100 100 WSW 13 20 29.98 1015 1.25 2.011675 N/A
12:55 pm 12:55 Cloudy 32 0 32 0 100 100 WSW 13 20 29.97 1015 2.5 4.02335 N/A
1:16 pm 13:16 Cloudy 32 0 32 0 100 100 WSW 14 22 29.97 1015 4 6.43736 N/A
1:36 pm 13:36 Cloudy 32 0 32 0 100 100 WSW 16 26 29.97 1015 3 4.82802 N/A
1:55 pm 13:55 Cloudy 32 0 32 0 100 100 WSW 17 28 29.96 1014 7 11.26538 N/A
2:16 pm 14:16 Cloudy 32 0 32 0 100 100 W 16 26 29.96 1014 5 8.0467 N/A
2:35 pm 14:35 Cloudy 32 0 32 0 100 100 WSW 15 24 29.97 1015 4 6.43736 N/A
2:55 pm 14:55 Cloudy 32 0 32 0 100 100 WSW 15 24 29.96 1014 4 6.43736 N/A
3:16 pm 15:16 Cloudy 32 0 32 0 100 100 WSW 13 20 29.97 1015 2 3.21868 N/A
3:36 pm 15:36 Cloudy 32 0 32 0 100 100 WSW 16 26 29.97 1015 1.75 2.816345 N/A
3:55 pm 15:55 Cloudy 32 0 32 0 100 100 WSW 20 31 29.97 1015 3 4.82802 N/A
4:15 pm 16:15 Cloudy 32 0 32 0 100 100 WSW 13 20 29.97 1015 4 6.43736 N/A
4:35 pm 16:35 Cloudy 32 0 32 0 100 100 WSW 17 28 29.98 1015 5 8.0467 N/A
4:56 pm 16:56 Cloudy 32 0 32 0 100 100 WSW 20 31 29.98 1015 7 11.26538 N/A
5:15 pm 17:15 Cloudy 32 0 32 0 100 100 WSW 15 24 29.98 1015 5 8.0467 N/A
5:36 pm 17:36 Cloudy 32 0 32 0 100 100 WSW 16 26 29.98 1015 2 3.21868 N/A
5:56 pm 17:56 Cloudy 32 0 32 0 100 100 WSW 18 30 29.99 1015 3 4.82802 N/A
6:16 pm 18:16 Cloudy 32 0 32 0 100 100 WSW 14 22 29.99 1015 5 8.0467 N/A
6:36 pm 18:36 Cloudy 32 0 32 0 100 100 WSW 20 31 29.99 1015 7 11.26538 N/A
6:56 pm 18:56 Cloudy 32 0 32 0 100 100 WSW 14 22 30 1016 10 16.0934 N/A
7:16 pm 19:16 Cloudy 32 0 32 0 100 100 WSW 17 28 30.01 1016 10 16.0934 N/A
7:36 pm 19:36 Cloudy 32 0 32 0 100 100 W 17 28 30.01 1016 10 16.0934 N/A
7:55 pm 19:55 Cloudy 32 0 32 0 100 100 W 18 30 30.01 1016 7 11.26538 N/A
8:15 pm 20:15 Cloudy 32 0 32 0 100 100 WSW 12 19 30.01 1016 3 4.82802 N/A
8:35 pm 20:35 Cloudy 32 0 32 0 100 100 WSW 13 20 30.01 1016 3 4.82802 N/A
8:55 pm 20:55 Cloudy 32 0 32 0 100 100 WSW 14 22 30.01 1016 2.5 4.02335 N/A
9:16 pm 21:16 Cloudy 32 0 32 0 100 100 WSW 12 19 30.01 1016 2.5 4.02335 N/A
9:35 pm 21:35 Cloudy 32 0 32 0 100 100 WSW 13 20 30.01 1016 3 4.82802 N/A
9:55 pm 21:55 Cloudy 32 0 32 0 100 100 WSW 13 20 30.01 1016 2.5 4.02335 N/A
10:15 pm 22:15 Cloudy 32 0 32 0 100 100 WSW 10 17 30.01 1016 3 4.82802 N/A
10:35 pm 22:35 Cloudy 32 0 32 0 100 100 WSW 9 15 30.01 1016 3 4.82802 N/A
10:56 pm 22:56 Cloudy 32 0 32 0 100 100 WSW 13 20 30.02 1016 3 4.82802 N/A
11:15 pm 23:15 Cloudy 32 0 32 0 100 100 WSW 13 20 30.02 1016 4 6.43736 N/A
11:36 pm 23:36 Cloudy 30 -1 30 -1 100 100 WSW 13 20 30.02 1017 7 11.26538 N/A
11:56 pm 23:56 Cloudy 32 0 32 0 100 100 WSW 16 26 30.02 1016 5 8.0467 N/A

Powered by AerisWeather